Time,TemperatureF,DewpointF,PressureIn,WindDirection,WindDirectionDegrees,WindSpeedMPH,WindSpeedGustMPH,Humidity,HourlyPrecipIn,Conditions,Clouds,dailyrainin,SolarRadiationWatts/m^2,SoftwareType,DateUTC
2013-01-02 00:00:00,32.1,29.8,30.00,SW,225,2.0,2.0,91,0.00,,RA,0.00,0.00,VWS V14.01,2013-01-02 05:00:00,
2013-01-02 00:30:00,32.1,29.8,30.00,SW,225,2.0,2.0,91,0.00,,RA,0.00,0.00,VWS V14.01,2013-01-02 05:30:00,
2013-01-02 01:00:00,32.1,29.8,30.00,SW,225,2.0,2.0,91,0.00,,RA,0.00,0.00,VWS V14.01,2013-01-02 06:00:00,
2013-01-02 01:30:00,32.1,29.8,30.01,SW,225,2.0,2.0,91,0.00,,RA,0.00,0.00,VWS V14.01,2013-01-02 06:30:00,
2013-01-02 02:00:00,32.1,29.8,30.01,SW,225,2.0,2.0,91,0.00,,RA,0.00,0.00,VWS V14.01,2013-01-02 07:00:00,
2013-01-02 02:30:00,25.1,12.8,30.01,North,349,5.0,12.0,59,0.00,,RA,0.00,0.00,VWS V14.01,2013-01-02 07:30:00,
2013-01-02 03:00:00,24.8,12.1,30.01,NNE,16,6.0,14.0,58,0.00,,RA,0.00,0.00,VWS V14.01,2013-01-02 08:00:00,
2013-01-02 03:30:00,24.5,12.2,30.01,North,9,5.0,11.0,59,0.00,,RA,0.00,0.00,VWS V14.01,2013-01-02 08:30:00,
2013-01-02 04:00:00,24.1,12.2,30.02,North,351,3.0,10.0,60,0.00,,RA,0.00,0.00,VWS V14.01,2013-01-02 09:00:00,
2013-01-02 04:30:00,23.6,12.9,30.01,North,5,5.0,10.0,63,0.00,,RA,0.00,0.00,VWS V14.01,2013-01-02 09:30:00,
2013-01-02 05:00:00,23.4,13.4,30.03,NNW,329,6.0,11.0,65,0.00,,RA,0.00,0.00,VWS V14.01,2013-01-02 10:00:00,
2013-01-02 05:30:00,23.3,13.6,30.02,NNW,344,4.0,10.0,66,0.00,,RA,0.00,0.00,VWS V14.01,2013-01-02 10:30:00,
2013-01-02 06:00:00,23.0,13.4,30.02,NW,326,3.0,10.0,66,0.00,,RA,0.00,0.00,VWS V14.01,2013-01-02 11:00:00,
2013-01-02 06:30:00,22.9,13.3,30.02,NNE,30,2.0,10.0,66,0.00,,RA,0.00,0.00,VWS V14.01,2013-01-02 11:30:00,
2013-01-02 07:00:00,22.8,13.2,30.03,NW,304,2.0,7.0,66,0.00,,RA,0.00,0.00,VWS V14.01,2013-01-02 12:00:00,
2013-01-02 07:30:00,22.6,13.6,30.03,NW,306,2.0,5.0,68,0.00,,RA,0.00,7.00,VWS V14.01,2013-01-02 12:30:00,
2013-01-02 08:00:00,22.8,14.2,30.04,NNW,327,4.0,8.0,69,0.00,,RA,0.00,39.00,VWS V14.01,2013-01-02 13:00:00,
2013-01-02 08:30:00,23.3,13.6,30.05,North,351,4.0,9.0,66,0.00,,RA,0.00,77.00,VWS V14.01,2013-01-02 13:30:00,
2013-01-02 09:00:00,23.9,13.1,30.07,WNW,290,0.0,13.0,63,0.00,,RA,0.00,127.00,VWS V14.01,2013-01-02 14:00:00,
2013-01-02 09:30:00,24.6,13.1,30.07,NW,324,2.0,10.0,61,0.00,,RA,0.00,163.00,VWS V14.01,2013-01-02 14:30:00,
2013-01-02 10:00:00,25.5,13.6,30.08,NNW,327,3.0,14.0,60,0.00,,RA,0.00,218.00,VWS V14.01,2013-01-02 15:00:00,
2013-01-02 10:30:00,26.8,14.0,30.08,WNW,286,5.0,12.0,58,0.00,,RA,0.00,287.00,VWS V14.01,2013-01-02 15:30:00,
2013-01-02 11:00:00,27.9,14.6,30.06,NW,306,5.0,11.0,57,0.00,,RA,0.00,309.00,VWS V14.01,2013-01-02 16:00:00,
2013-01-02 11:30:00,29.5,15.8,30.05,NW,315,4.0,13.0,56,0.00,,RA,0.00,359.00,VWS V14.01,2013-01-02 16:30:00,
2013-01-02 12:00:00,29.9,16.1,30.03,NNW,338,6.0,15.0,56,0.00,,RA,0.00,358.00,VWS V14.01,2013-01-02 17:00:00,
2013-01-02 12:30:00,30.6,16.8,30.02,NW,315,6.0,18.0,56,0.00,,RA,0.00,328.00,VWS V14.01,2013-01-02 17:30:00,
2013-01-02 13:00:00,31.3,16.6,30.01,NW,315,6.0,16.0,54,0.00,,RA,0.00,305.00,VWS V14.01,2013-01-02 18:00:00,
2013-01-02 13:30:00,30.8,16.5,30.01,NW,315,7.0,18.0,55,0.00,,RA,0.00,244.00,VWS V14.01,2013-01-02 18:30:00,
2013-01-02 14:00:00,31.4,16.3,30.02,NW,315,7.0,17.0,53,0.00,,RA,0.00,229.00,VWS V14.01,2013-01-02 19:00:00,
2013-01-02 14:30:00,31.9,17.2,30.02,NW,315,6.0,14.0,54,0.00,,RA,0.00,196.00,VWS V14.01,2013-01-02 19:30:00,
2013-01-02 15:00:00,32.1,16.5,30.06,North,11,3.0,15.0,52,0.00,,,0.00,46.00,VWS V14.01,2013-01-02 20:00:00,
2013-01-02 15:20:00,32.7,17.0,30.04,NNW,336,6.0,6.0,52,0.00,,RA,0.00,144.00,VWS V14.01,2013-01-02 20:20:00,
2013-01-02 15:25:00,32.6,16.9,30.05,North,5,6.0,8.0,52,0.00,,RA,0.00,146.00,VWS V14.01,2013-01-02 20:25:00,
2013-01-02 15:30:00,32.7,17.5,30.05,NNE,15,4.0,13.0,53,0.00,,RA,0.00,142.00,VWS V14.01,2013-01-02 20:30:00,
2013-01-02 15:35:00,32.6,16.9,30.05,West,259,10.0,10.0,52,0.00,,BKN250,0.00,95.00,VWS V14.01,2013-01-02 20:35:00,
2013-01-02 15:40:00,32.5,17.3,30.05,North,355,9.0,10.0,53,0.00,,BKN250,0.00,67.00,VWS V14.01,2013-01-02 20:40:00,
2013-01-02 15:45:00,32.4,17.2,30.06,NW,313,5.0,14.0,53,0.00,,BKN250,0.00,67.00,VWS V14.01,2013-01-02 20:45:00,
2013-01-02 15:50:00,32.3,17.1,30.05,North,355,8.0,14.0,53,0.00,,BKN250,0.00,56.00,VWS V14.01,2013-01-02 20:50:00,
2013-01-02 15:55:00,32.2,16.6,30.06,NW,324,3.0,14.0,52,0.00,,BKN250,0.00,46.00,VWS V14.01,2013-01-02 20:55:00,
2013-01-02 16:00:00,32.1,16.5,30.06,WNW,295,6.0,15.0,52,0.00,,BKN250,0.00,47.00,VWS V14.01,2013-01-02 21:00:00,
2013-01-02 16:05:00,32.1,16.5,30.06,NNW,346,3.0,12.0,52,0.00,,BKN250,0.00,42.00,VWS V14.01,2013-01-02 21:05:00,
2013-01-02 16:10:00,32.1,16.9,30.06,NNW,341,1.0,12.0,53,0.00,,BKN250,0.00,32.00,VWS V14.01,2013-01-02 21:10:00,
2013-01-02 16:15:00,32.1,16.9,30.06,North,351,6.0,12.0,53,0.00,,BKN250,0.00,25.00,VWS V14.01,2013-01-02 21:15:00,
2013-01-02 16:20:00,32.1,16.5,30.06,NW,306,5.0,15.0,52,0.00,,BKN250,0.00,21.00,VWS V14.01,2013-01-02 21:20:00,
2013-01-02 16:25:00,32.0,16.8,30.06,NW,319,4.0,15.0,53,0.00,,BKN250,0.00,18.00,VWS V14.01,2013-01-02 21:25:00,
2013-01-02 16:30:00,31.9,16.7,30.06,North,360,6.0,15.0,53,0.00,,BKN250,0.00,11.00,VWS V14.01,2013-01-02 21:30:00,
2013-01-02 16:35:00,31.9,16.7,30.06,NW,304,3.0,8.0,53,0.00,,OVC250,0.00,7.00,VWS V14.01,2013-01-02 21:35:00,
2013-01-02 16:40:00,31.9,16.7,30.06,North,360,6.0,9.0,53,0.00,,OVC250,0.00,0.00,VWS V14.01,2013-01-02 21:40:00,
2013-01-02 16:45:00,31.8,16.6,30.06,NW,325,6.0,10.0,53,0.00,,OVC250,0.00,0.00,VWS V14.01,2013-01-02 21:45:00,
2013-01-02 16:50:00,31.8,16.6,30.07,North,350,6.0,10.0,53,0.00,,OVC250,0.00,0.00,VWS V14.01,2013-01-02 21:50:00,
2013-01-02 16:55:00,31.7,16.5,30.07,NNW,337,5.0,14.0,53,0.00,,OVC250,0.00,0.00,VWS V14.01,2013-01-02 21:55:00,
2013-01-02 17:00:00,31.7,17.0,30.07,North,11,4.0,14.0,54,0.00,,OVC250,0.00,0.00,VWS V14.01,2013-01-02 22:00:00,
2013-01-02 17:05:00,31.7,16.5,30.08,NNE,29,5.0,6.0,53,0.00,,OVC250,0.00,0.00,VWS V14.01,2013-01-02 22:05:00,
2013-01-02 17:10:00,31.6,16.9,30.08,NW,322,4.0,13.0,54,0.00,,OVC250,0.00,0.00,VWS V14.01,2013-01-02 22:10:00,
2013-01-02 17:15:00,31.6,16.9,30.08,NW,312,8.0,13.0,54,0.00,,OVC250,0.00,0.00,VWS V14.01,2013-01-02 22:15:00,
2013-01-02 17:20:00,31.6,16.9,30.09,NW,321,4.0,13.0,54,0.00,,OVC250,0.00,0.00,VWS V14.01,2013-01-02 22:20:00,
2013-01-02 17:25:00,31.6,16.9,30.09,NNW,340,2.0,13.0,54,0.00,,OVC250,0.00,0.00,VWS V14.01,2013-01-02 22:25:00,
2013-01-02 17:30:00,31.5,16.8,30.09,WNW,282,5.0,13.0,54,0.00,,OVC250,0.00,0.00,VWS V14.01,2013-01-02 22:30:00,
2013-01-02 17:35:00,31.5,16.8,30.10,NW,313,1.0,8.0,54,0.00,,OVC250,0.00,0.00,VWS V14.01,2013-01-02 22:35:00,
2013-01-02 17:40:00,31.4,17.1,30.10,NNW,339,7.0,11.0,55,0.00,,OVC250,0.00,0.00,VWS V14.01,2013-01-02 22:40:00,
2013-01-02 17:45:00,31.4,16.7,30.11,NNW,344,4.0,11.0,54,0.00,,OVC250,0.00,0.00,VWS V14.01,2013-01-02 22:45:00,
2013-01-02 17:50:00,31.4,17.1,30.10,North,351,3.0,11.0,55,0.00,,OVC250,0.00,0.00,VWS V14.01,2013-01-02 22:50:00,
2013-01-02 17:55:00,31.4,17.5,30.10,NW,311,1.0,11.0,56,0.00,,OVC250,0.00,0.00,VWS V14.01,2013-01-02 22:55:00,
2013-01-02 18:00:00,31.3,17.0,30.10,NW,319,8.0,12.0,55,0.00,,OVC250,0.00,0.00,VWS V14.01,2013-01-02 23:00:00,
2013-01-02 18:05:00,31.2,16.9,30.10,West,276,1.0,5.0,55,0.00,,OVC250,0.00,0.00,VWS V14.01,2013-01-02 23:05:00,
2013-01-02 18:10:00,31.2,17.3,30.11,NNW,328,6.0,8.0,56,0.00,,OVC250,0.00,0.00,VWS V14.01,2013-01-02 23:10:00,
2013-01-02 18:15:00,31.2,17.3,30.11,NW,324,3.0,8.0,56,0.00,,OVC250,0.00,0.00,VWS V14.01,2013-01-02 23:15:00,
2013-01-02 18:20:00,31.1,17.2,30.11,West,280,4.0,11.0,56,0.00,,OVC250,0.00,0.00,VWS V14.01,2013-01-02 23:20:00,
2013-01-02 18:25:00,31.1,17.7,30.11,NE,46,4.0,11.0,57,0.00,,OVC250,0.00,0.00,VWS V14.01,2013-01-02 23:25:00,
2013-01-02 18:30:00,31.0,17.6,30.11,NW,311,2.0,11.0,57,0.00,,OVC250,0.00,0.00,VWS V14.01,2013-01-02 23:30:00,
2013-01-02 18:35:00,31.0,17.6,30.11,West,273,2.0,9.0,57,0.00,,BKN250,0.00,0.00,VWS V14.01,2013-01-02 23:35:00,
2013-01-02 18:40:00,31.0,17.6,30.11,NW,317,6.0,11.0,57,0.00,,BKN250,0.00,0.00,VWS V14.01,2013-01-02 23:40:00,
2013-01-02 18:45:00,31.0,17.6,30.12,West,270,8.0,11.0,57,0.00,,BKN250,0.00,0.00,VWS V14.01,2013-01-02 23:45:00,
2013-01-02 18:50:00,31.0,17.6,30.12,NNW,342,4.0,13.0,57,0.00,,BKN250,0.00,0.00,VWS V14.01,2013-01-02 23:50:00,
2013-01-02 18:55:00,31.0,17.6,30.12,NW,321,3.0,13.0,57,0.00,,BKN250,0.00,0.00,VWS V14.01,2013-01-02 23:55:00,
2013-01-02 19:00:00,31.0,17.6,30.12,West,280,2.0,13.0,57,0.00,,BKN250,0.00,0.00,VWS V14.01,2013-01-03 00:00:00,
2013-01-02 19:05:00,30.9,17.9,30.12,NW,312,3.0,4.0,58,0.00,,BKN250,0.00,0.00,VWS V14.01,2013-01-03 00:05:00,
2013-01-02 19:10:00,30.9,17.9,30.12,WNW,300,5.0,9.0,58,0.00,,BKN250,0.00,0.00,VWS V14.01,2013-01-03 00:10:00,
2013-01-02 19:15:00,30.9,17.9,30.12,NW,306,4.0,10.0,58,0.00,,BKN250,0.00,0.00,VWS V14.01,2013-01-03 00:15:00,
2013-01-02 19:20:00,30.9,17.9,30.12,NNW,331,5.0,11.0,58,0.00,,BKN250,0.00,0.00,VWS V14.01,2013-01-03 00:20:00,
2013-01-02 19:25:00,30.9,17.9,30.12,NW,316,2.0,11.0,58,0.00,,BKN250,0.00,0.00,VWS V14.01,2013-01-03 00:25:00,
2013-01-02 19:30:00,30.9,17.9,30.11,WSW,240,5.0,11.0,58,0.00,,BKN250,0.00,0.00,VWS V14.01,2013-01-03 00:30:00,
2013-01-02 19:35:00,30.9,18.3,30.11,West,266,3.0,9.0,59,0.00,,BKN250,0.00,0.00,VWS V14.01,2013-01-03 00:35:00,
2013-01-02 19:40:00,31.0,18.4,30.12,NW,325,9.0,9.0,59,0.00,,BKN250,0.00,0.00,VWS V14.01,2013-01-03 00:40:00,
2013-01-02 19:45:00,31.0,18.4,30.12,WNW,292,5.0,9.0,59,0.00,,BKN250,0.00,0.00,VWS V14.01,2013-01-03 00:45:00,
2013-01-02 19:50:00,30.9,18.3,30.11,West,276,6.0,10.0,59,0.00,,BKN250,0.00,0.00,VWS V14.01,2013-01-03 00:50:00,
2013-01-02 19:55:00,30.8,18.2,30.11,NW,312,3.0,10.0,59,0.00,,BKN250,0.00,0.00,VWS V14.01,2013-01-03 00:55:00,
2013-01-02 20:00:00,30.8,18.2,30.11,WNW,296,1.0,10.0,59,0.00,,BKN250,0.00,0.00,VWS V14.01,2013-01-03 01:00:00,
2013-01-02 20:05:00,30.7,18.1,30.11,WNW,300,8.0,10.0,59,0.00,,BKN250,0.00,0.00,VWS V14.01,2013-01-03 01:05:00,
2013-01-02 20:10:00,30.7,18.1,30.12,WNW,302,5.0,10.0,59,0.00,,BKN250,0.00,0.00,VWS V14.01,2013-01-03 01:10:00,
2013-01-02 20:15:00,30.7,18.5,30.11,WNW,288,4.0,10.0,60,0.00,,BKN250,0.00,0.00,VWS V14.01,2013-01-03 01:15:00,
2013-01-02 20:20:00,30.6,18.4,30.11,NNW,333,1.0,10.0,60,0.00,,BKN250,0.00,0.00,VWS V14.01,2013-01-03 01:20:00,
2013-01-02 20:25:00,30.6,18.4,30.11,North,349,5.0,10.0,60,0.00,,BKN250,0.00,0.00,VWS V14.01,2013-01-03 01:25:00,
2013-01-02 20:30:00,30.6,18.4,30.11,NNW,329,9.0,11.0,60,0.00,,BKN250,0.00,0.00,VWS V14.01,2013-01-03 01:30:00,
2013-01-02 20:35:00,30.7,18.1,30.11,NW,322,3.0,9.0,59,0.00,,BKN250,0.00,0.00,VWS V14.01,2013-01-03 01:35:00,
2013-01-02 20:40:00,30.7,18.5,30.12,West,271,7.0,9.0,60,0.00,,BKN250,0.00,0.00,VWS V14.01,2013-01-03 01:40:00,
2013-01-02 20:45:00,30.5,18.3,30.12,NW,313,2.0,9.0,60,0.00,,BKN250,0.00,0.00,VWS V14.01,2013-01-03 01:45:00,
2013-01-02 20:50:00,30.5,18.3,30.13,SW,235,6.0,9.0,60,0.00,,BKN250,0.00,0.00,VWS V14.01,2013-01-03 01:50:00,
2013-01-02 20:55:00,30.5,18.3,30.13,West,281,3.0,10.0,60,0.00,,BKN250,0.00,0.00,VWS V14.01,2013-01-03 01:55:00,
2013-01-02 21:00:00,30.5,18.3,30.13,WNW,289,4.0,10.0,60,0.00,,BKN250,0.00,0.00,VWS V14.01,2013-01-03 02:00:00,
2013-01-02 21:05:00,30.5,18.7,30.13,NNW,329,3.0,6.0,61,0.00,,BKN250,0.00,0.00,VWS V14.01,2013-01-03 02:05:00,
2013-01-02 21:10:00,30.4,18.6,30.13,NW,316,0.0,8.0,61,0.00,,BKN250,0.00,0.00,VWS V14.01,2013-01-03 02:10:00,
2013-01-02 21:15:00,30.3,18.5,30.12,NNW,344,4.0,10.0,61,0.00,,BKN250,0.00,0.00,VWS V14.01,2013-01-03 02:15:00,
2013-01-02 21:20:00,30.3,18.5,30.13,NNW,343,0.0,10.0,61,0.00,,BKN250,0.00,0.00,VWS V14.01,2013-01-03 02:20:00,
2013-01-02 21:25:00,30.3,18.5,30.14,NW,320,4.0,10.0,61,0.00,,BKN250,0.00,0.00,VWS V14.01,2013-01-03 02:25:00,
2013-01-02 21:30:00,30.3,18.5,30.14,NNW,331,3.0,10.0,61,0.00,,BKN250,0.00,0.00,VWS V14.01,2013-01-03 02:30:00,
2013-01-02 21:35:00,30.3,18.5,30.14,NW,325,5.0,8.0,61,0.00,,BKN250,0.00,0.00,VWS V14.01,2013-01-03 02:35:00,
2013-01-02 21:40:00,30.3,18.5,30.14,West,276,1.0,9.0,61,0.00,,BKN250,0.00,0.00,VWS V14.01,2013-01-03 02:40:00,
2013-01-02 21:45:00,30.2,18.8,30.14,NW,317,4.0,10.0,62,0.00,,BKN250,0.00,0.00,VWS V14.01,2013-01-03 02:45:00,
2013-01-02 21:50:00,30.2,18.8,30.14,NW,317,3.0,10.0,62,0.00,,BKN250,0.00,0.00,VWS V14.01,2013-01-03 02:50:00,
2013-01-02 21:55:00,30.2,19.1,30.14,WSW,258,1.0,10.0,63,0.00,,BKN250,0.00,0.00,VWS V14.01,2013-01-03 02:55:00,
2013-01-02 22:00:00,30.2,19.1,30.14,WNW,295,3.0,10.0,63,0.00,,BKN250,0.00,0.00,VWS V14.01,2013-01-03 03:00:00,
2013-01-02 22:05:00,30.1,19.0,30.14,West,279,6.0,7.0,63,0.00,,BKN250,0.00,0.00,VWS V14.01,2013-01-03 03:05:00,
2013-01-02 22:10:00,30.1,19.0,30.14,NNW,341,3.0,10.0,63,0.00,,BKN250,0.00,0.00,VWS V14.01,2013-01-03 03:10:00,
2013-01-02 22:15:00,30.0,19.0,30.14,NW,316,7.0,10.0,63,0.00,,BKN250,0.00,0.00,VWS V14.01,2013-01-03 03:15:00,
2013-01-02 22:20:00,29.9,18.9,30.15,WNW,301,4.0,10.0,63,0.00,,BKN250,0.00,0.00,VWS V14.01,2013-01-03 03:20:00,
2013-01-02 22:25:00,29.9,18.9,30.15,NNW,333,5.0,10.0,63,0.00,,BKN250,0.00,0.00,VWS V14.01,2013-01-03 03:25:00,
2013-01-02 22:30:00,29.9,18.9,30.15,NW,323,7.0,10.0,63,0.00,,BKN250,0.00,0.00,VWS V14.01,2013-01-03 03:30:00,
2013-01-02 22:35:00,29.9,18.9,30.15,NNW,335,0.0,9.0,63,0.00,,BKN250,0.00,0.00,VWS V14.01,2013-01-03 03:35:00,
2013-01-02 22:40:00,29.9,18.9,30.15,NNW,342,5.0,9.0,63,0.00,,BKN250,0.00,0.00,VWS V14.01,2013-01-03 03:40:00,
2013-01-02 22:45:00,29.9,18.9,30.16,NW,306,0.0,9.0,63,0.00,,BKN250,0.00,0.00,VWS V14.01,2013-01-03 03:45:00,
2013-01-02 22:50:00,29.8,18.8,30.16,West,265,6.0,9.0,63,0.00,,BKN250,0.00,0.00,VWS V14.01,2013-01-03 03:50:00,
2013-01-02 22:55:00,29.8,18.8,30.16,WNW,301,2.0,9.0,63,0.00,,BKN250,0.00,0.00,VWS V14.01,2013-01-03 03:55:00,
2013-01-02 23:00:00,29.9,19.2,30.16,NW,319,3.0,9.0,64,0.00,,BKN250,0.00,0.00,VWS V14.01,2013-01-03 04:00:00,
2013-01-02 23:05:00,29.9,18.9,30.16,NNE,15,5.0,8.0,63,0.00,,BKN250,0.00,0.00,VWS V14.01,2013-01-03 04:05:00,
2013-01-02 23:10:00,29.8,19.1,30.16,NNW,332,3.0,8.0,64,0.00,,BKN250,0.00,0.00,VWS V14.01,2013-01-03 04:10:00,
2013-01-02 23:15:00,29.8,19.1,30.16,WNW,303,5.0,8.0,64,0.00,,BKN250,0.00,0.00,VWS V14.01,2013-01-03 04:15:00,
2013-01-02 23:20:00,29.8,19.1,30.17,NW,311,7.0,8.0,64,0.00,,BKN250,0.00,0.00,VWS V14.01,2013-01-03 04:20:00,
2013-01-02 23:25:00,29.7,19.0,30.17,NW,309,3.0,9.0,64,0.00,,BKN250,0.00,0.00,VWS V14.01,2013-01-03 04:25:00,
2013-01-02 23:30:00,29.7,19.4,30.17,NNW,328,2.0,9.0,65,0.00,,BKN250,0.00,0.00,VWS V14.01,2013-01-03 04:30:00,
2013-01-02 23:35:00,29.6,18.9,30.16,NW,304,4.0,9.0,64,0.00,,BKN240,0.00,0.00,VWS V14.01,2013-01-03 04:35:00,
2013-01-02 23:40:00,29.6,19.3,30.17,NW,312,4.0,9.0,65,0.00,,BKN240,0.00,0.00,VWS V14.01,2013-01-03 04:40:00,
2013-01-02 23:45:00,29.6,19.3,30.16,NNW,347,7.0,9.0,65,0.00,,BKN240,0.00,0.00,VWS V14.01,2013-01-03 04:45:00,
2013-01-02 23:50:00,29.5,19.2,30.16,NW,309,4.0,9.0,65,0.00,,BKN240,0.00,0.00,VWS V14.01,2013-01-03 04:50:00,
2013-01-02 23:55:00,29.6,19.3,30.17,WNW,287,3.0,11.0,65,0.00,,BKN240,0.00,0.00,VWS V14.01,2013-01-03 04:55:00,